Погода Белый

Погода Белый : погода сейчас, прогноз погоды и архив. Всё, что Вы хотите узнать о погоде Белый!

Поиск расширенной информации на нашем сайте:

Другие новости

Новости СМИ2

Главная страница сайта

Новости сайта

02.10.2013

Напоминаем, что на нашем новом сайте вы можете получить высокодетализированные прогнозы погоды по пунктам России, СНГ и мира (включающие важные для авиации метеовеличины, такие как направление и скорость ветра, видимость, явления погоды, количество и форма облачности, нижняя и верхняя граница облачности), а также ознакомиться с разнообразными материалами по авиационной метеорологии и подборкой полезных ссылок на эту тему.

Сайт Метеоцентр.Азия посвящён разработке технологий оптимизации авиаметеорологического обслуживания, включая проектирование и перспективное создание нескольких автоматизированных авиаметеорологических систем:
- система выпуска высокодетальных прогностических карт явлений погоды для нижнего воздушного пространства по России и ближнему зарубежью;
- система верификации прогнозов TAF (выпускаемых синоптиками официальных АМСГ РФ и ближнего зарубежья) и AUTOTAF (выпускаемых сайтом Метеоцентр.Азия) - выявление ошибок, онлайн-сопоставление с фактической погодой METAR, автоматическое внесение коррективов в прогнозы при резком отклонении фактической погоды от прогноза, подсчёт оправдываемости прогнозов по элементам и в целом;
- система обработки, анализа и отображения авиаметеорологической информации для применения провайдерами метеорологической информации.


Погода Белый - сегодня

Время (UTC), дата Ветер
(°,м/с) 
Видим.   Явления Облачность Т
(°С)
Тd
(°С)
f(%) Тe
(°С)
Pmin
(гПа)
dP
(гПа)
Po
(мм)
O2
(г/м3)
Тmin Tmax R s Состояние
почвы
00 25.04.17 240 (ЮЗ) 10 км    ясно 
+0.4 -5.1 67 -1  1012.6  0.4  739  298           
03 25.04.17 220 (ЮЗ) 20000 м    ясно 
+0.2 -3.3 77 -1  1013  0.4  739  298  -1.2         
06 25.04.17 240 (ЮЗ) 20000 м    ясно 
+4.6 -1.1 66 +3  1013.7  1.1  740  293  -1.2        мокрая 
09 25.04.17 240 (ЮЗ) 20000 м    9/9 600 м 
[Sc]
+7.3 -2.9 48 +6  1013.7  0.3  740  291           
12 25.04.17 200 (Ю) 20000 м    9/9 600 м 
[Sc]
+9 -3.5 41 +8  1013.3  -0.2  740  289           
15 25.04.17 200 (Ю) 5{10}  20000 м    9/9 600 м 
[Sc]
+9.3 -4.8 37 +8  1012.3  -1  739  288           
18 25.04.17 180 (Ю) 5{11}  10 км    9/9 600 м 
[Sc]
+8.1 -2.8 46 +7  1012.3  -0.1  739  289    +10       
21 25.04.17 160 (Ю) 7-11{11}  10 км    9/9 600 м 
[Sc]
+7.7 -2.3 49 +5  1009.7  -2.6  737  289           
00 26.04.17 180 (Ю) 6-10{13}  10 км    9/9 600 м 
[Sc]
+8.4 -1.7 49 +7  1007.4  -2.1  736  288           
03 26.04.17 180 (Ю) 5{13}  10 км    9/9 600 м 
[Sc]
+8.4 -0.5 53 +7  1006.2  -1.2  735  287  +7.5         
06 26.04.17 210 (ЮЗ) 5{14}  20000 м    9/9 600 м 
[Sc]
+9 +1.8 61 +8  1006  -0.1  735  286  +7.5        мокрая 
09 26.04.17 290 (З) 3{14}  4000 м  слаб. дождь  10/10 300 м 
[Frnb|Ns]
+5.4 +4.1 91 +4  1008.8  2.4  736  290           
12 26.04.17 280 (З) 1{14}  4000 м  слаб. дождь  10/10 300 м 
[Frnb|Ns]
+4.1 +2.9 92 +5  1010.6  1.6  738  292           
15 26.04.17 240 (ЮЗ) 20000 м  {дождь}  9/9 600 м 
[Sc]
+4.3 +2.3 87 +3  1011.9  1.3  739  293      11     
18 26.04.17 200 (Ю) 10 км  {дождь}  9/9 600 м 
[Sc]
+3.4 +2 91 +2  1012.7  0.6  739  294    +9.3  11     
21 26.04.17 230 (ЮЗ) 10 км    9/9 600 м 
[Sc]
+3.2 +2.1 92 +2  1013.7  740  294           
00 27.04.17 230 (ЮЗ) 10 км    9/9 600 м 
[Sc]
+3.3 +2.2 92 +2  1013.9  0.2  740  294           
03 27.04.17 230 (ЮЗ) 10 км    9/9 600 м 
[Sc]
+3.1 +1.9 92 +4  1014.4  0.5  740  295  +3.1         
06 27.04.17 210 (ЮЗ) 10 км    9/9 600 м 
[Sc]
+4.1 +2.3 88 +3  1015.2  0.9  741  294  +3.1        мокрая 
09 27.04.17 170 (Ю) 4000 м  слаб. дождь  10/10 300 м 
[Frnb|Ns]
+3.3 +1.1 85 +3  1015.3  741  295           
12 27.04.17 150 (ЮВ) 4000 м  слаб. дождь  10/10 300 м 
[Frnb|Ns]
+3.3 +1.3 87 +4  1015.8  0.5  741  295           
15 27.04.17 180 (Ю) 4000 м  слаб. дождь  10/10 300 м 
[Frnb|Ns]
+3.4 +2 91 +4  1016.8  742  295         
18 27.04.17 180 (Ю) 4000 м  слаб. дождь  10/10 300 м 
[Frnb|Ns]
+2.8 +2 94 +4  1017.7  0.8  743  296    +4.3     
21 27.04.17 200 (Ю) 10 км  {дождь}  9/9 600 м 
[Sc]
+2.7 +2 95 +3  1018.6  0.9  743  296           
00 28.04.17 тихо ()   10 км  {дождь}  9/9 600 м 
[Sc]
+1.5 +0.8 95 +2  1019.6  0.8  744  298           
Время (UTC), дата Ветер
(°,м/с) 
Видим.   Явления Облачность Т
(°С)
Тd
(°С)
f(%) Тe
(°С)
Pmin
(гПа)
dP
(гПа)
Po
(мм)
O2
(г/м3)
Тmin Tmax R s Состояние
почвы

Для получения пояснительной информации подведите курсор к названию столбца.

ПОГОДА Белый - архив

Всё, что Вы хотите узнать о погоде Белый - удобно и подробно!

Выберите нужную дату (начиная с 1 января 2015* года) и нажмите кнопку "Найти".
Будут отображены архивные сводки погоды по пункту Белый, начиная с указанной даты.


Отображать данные в формате CSV (для использования в таблицах Excel)


Внимание! Наш архив погоды предназначен исключительно для личного некоммерческого использования в познавательных целях. Если Вам необходимы официальные справки о состоянии погоды (для производственных, юридических, коммерческих и т.п. целей), обращайтесь в органы Росгидромета.

*Примечание: данная дата относится к архиву по метеостанциям СССР (Россия, СНГ, Балтия).
Архив по метеостанциям Зарубежной Европы и Азии (кроме Китая) хранится 10 дней, по другим регионам земного шара (Китай, Африка, Америка, Австралия, Океания) - 1 день.

Белый - район местоположения метеостанции


Название, широта, долгота, высота метеостанции:
Белый 55.9°ш. 32.9°д. 222 м над ур. моря [Российская Федерация]

Дополнительная информация

В oтличие oт бoльшинства пoгoдных сайтoв мы публикуем пoдрoбную метеoинфoрмацию в детальнoм прoфессиoнальнoм фoрмате.

Характеристики температуры и влажнoсти вoздуха измеряются на высoте 2 м в тени вдали oт зданий и деревьев.
Скoрoсть ветра измеряется на высoте 10 м (на урoвне рoста челoвека скoрoсть ветра ниже в 1.5-2 раза). Если метеoстанция нахoдится в гoрoде или в лесу, тo скoрoсть ветра занижена на 2-4 м/с пo сравнению с oткрытым местoм. Скoрoсть ветра над акватoриями крупных рек и oзёр, а также на вершинах хoлмoв на 2-5 м/с выше, чем в oбычных услoвиях.
Атмoсфернoе давление в разных тoчках местнoсти мoжет значительнo oтличаться oт давления на метеoстанции, в зависимoсти oт услoвий рельефа (при пoдъёме на 10 м давление пoнижается примернo на 1 мм рт.ст.).